• In Russia
  • List of Countries
  • For 7 days
  • Water Temperature
  • Satellite Maps
  • Weather Map
  • Weather Widgets
  • user-avatar
    Login

    Hourly Weather Asadabad

    Today, 11 December, Tuesday

    Time Temperature Precipitation Wind Pressure Humidity
    00:00 +3°C° 0 mm 2 mps 657 mmHg 68%
    01:00 +3°C° 0 mm 2 mps 658 mmHg 65%
    02:00 +3°C° 0 mm 2 mps 658 mmHg 63%
    03:00 +3°C° 0 mm 2 mps 658 mmHg 62%
    04:00 +3°C° 0 mm 2 mps 658 mmHg 61%
    05:00 +4°C° 0 mm 2 mps 657 mmHg 55%
    06:00 +4°C° 0 mm 2 mps 657 mmHg 53%
    07:00 +5°C° 0 mm 2 mps 658 mmHg 50%
    08:00 +5°C° 0 mm 2 mps 658 mmHg 48%
    09:00 +6°C° 0 mm 2 mps 658 mmHg 46%
    10:00 +8°C° 0 mm 1 mps 658 mmHg 43%
    11:00 +10°C° 0 mm 1 mps 658 mmHg 36%
    12:00 +10°C° 0 mm 1 mps 658 mmHg 37%
    13:00 +10°C° 0 mm 1 mps 658 mmHg 37%
    14:00 +10°C° 0 mm 2 mps 658 mmHg 38%
    15:00 +10°C° 0 mm 1 mps 658 mmHg 42%
    16:00 +9°C° 0 mm 1 mps 658 mmHg 46%
    17:00 +8°C° 0 mm 1 mps 657 mmHg 53%
    18:00 +7°C° 0 mm 1 mps 657 mmHg 52%
    19:00 +7°C° 0 mm 1 mps 658 mmHg 52%
    20:00 +6°C° 0 mm 2 mps 658 mmHg 52%
    21:00 +5°C° 0 mm 2 mps 658 mmHg 51%
    22:00 +5°C° 0 mm 2 mps 658 mmHg 50%
    23:00 +5°C° 0 mm 2 mps 658 mmHg 49%

    Tomorrow, 12 December, Wednesday

    Time Temperature Precipitation Wind Pressure Humidity
    00:00 +5°C° 0 mm 2 mps 658 mmHg 49%
    01:00 +4°C° 0 mm 2 mps 658 mmHg 48%
    02:00 +4°C° 0 mm 2 mps 658 mmHg 48%
    03:00 +4°C° 0 mm 2 mps 658 mmHg 47%
    04:00 +3°C° 0 mm 2 mps 658 mmHg 47%
    05:00 +3°C° 0 mm 2 mps 658 mmHg 47%
    06:00 +3°C° 0 mm 2 mps 658 mmHg 45%
    07:00 +4°C° 0 mm 2 mps 659 mmHg 44%
    08:00 +4°C° 0 mm 2 mps 659 mmHg 42%
    09:00 +5°C° 0 mm 2 mps 660 mmHg 38%
    10:00 +7°C° 0 mm 2 mps 660 mmHg 34%
    11:00 +10°C° 0 mm 1 mps 660 mmHg 30%
    12:00 +10°C° 0 mm 1 mps 660 mmHg 30%
    13:00 +9°C° 0 mm 2 mps 659 mmHg 31%
    14:00 +10°C° 0 mm 2 mps 659 mmHg 31%
    15:00 +10°C° 0 mm 1 mps 659 mmHg 35%
    16:00 +9°C° 0 mm 1 mps 659 mmHg 39%
    17:00 +7°C° 0 mm 1 mps 659 mmHg 43%
    18:00 +7°C° 0 mm 1 mps 659 mmHg 43%
    19:00 +5°C° 0 mm 2 mps 660 mmHg 43%
    20:00 +5°C° 0 mm 2 mps 660 mmHg 43%
    21:00 +4°C° 0 mm 2 mps 660 mmHg 41%
    22:00 +4°C° 0 mm 2 mps 660 mmHg 40%
    23:00 +4°C° 0 mm 2 mps 661 mmHg 39%

    Day after tomorrow, 13 December, Thursday

    Time Temperature Precipitation Wind Pressure Humidity
    00:00 +4°C° 0 mm 2 mps 660 mmHg 38%
    01:00 +3°C° 0 mm 2 mps 660 mmHg 37%
    02:00 +3°C° 0 mm 2 mps 660 mmHg 36%
    03:00 +3°C° 0 mm 2 mps 660 mmHg 34%
    04:00 +3°C° 0 mm 2 mps 660 mmHg 33%
    05:00 +2°C° 0 mm 2 mps 660 mmHg 32%
    06:00 +3°C° 0 mm 2 mps 660 mmHg 31%
    07:00 +3°C° 0 mm 2 mps 661 mmHg 29%
    08:00 +3°C° 0 mm 2 mps 661 mmHg 27%
    09:00 +5°C° 0 mm 2 mps 661 mmHg 25%
    10:00 +7°C° 0 mm 2 mps 661 mmHg 23%
    11:00 +10°C° 0 mm 1 mps 661 mmHg 20%
    12:00 +11°C° 0 mm 1 mps 661 mmHg 20%
    13:00 +11°C° 0 mm 1 mps 660 mmHg 20%
    14:00 +10°C° 0 mm 2 mps 660 mmHg 21%
    15:00 +10°C° 0 mm 1 mps 660 mmHg 25%
    16:00 +8°C° 0 mm 1 mps 659 mmHg 29%
    17:00 +7°C° 0 mm 1 mps 659 mmHg 34%
    18:00 +7°C° 0 mm 1 mps 660 mmHg 32%
    19:00 +5°C° 0 mm 2 mps 660 mmHg 30%
    20:00 +5°C° 0 mm 2 mps 661 mmHg 29%
    21:00 +4°C° 0 mm 2 mps 661 mmHg 27%
    22:00 +4°C° 0 mm 2 mps 661 mmHg 26%
    23:00 +3°C° 0 mm 3 mps 661 mmHg 25%

    14 December, Friday

    Time Temperature Precipitation Wind Pressure Humidity
    00:00 +4°C° 0 mm 2 mps 661 mmHg 25%
    01:00 +3°C° 0 mm 2 mps 660 mmHg 24%
    02:00 +3°C° 0 mm 2 mps 660 mmHg 24%
    03:00 +3°C° 0 mm 2 mps 660 mmHg 24%
    04:00 +3°C° 0 mm 2 mps 660 mmHg 23%
    05:00 +3°C° 0 mm 2 mps 660 mmHg 23%
    06:00 +3°C° 0 mm 2 mps 660 mmHg 23%
    07:00 +3°C° 0 mm 2 mps 660 mmHg 22%
    08:00 +3°C° 0 mm 2 mps 661 mmHg 22%
    09:00 +6°C° 0 mm 2 mps 661 mmHg 19%
    10:00 +9°C° 0 mm 1 mps 661 mmHg 17%
    11:00 +12°C° 0 mm 1 mps 661 mmHg 15%
    12:00 +12°C° 0 mm 1 mps 661 mmHg 15%
    13:00 +13°C° 0 mm 1 mps 661 mmHg 15%
    14:00 +13°C° 0 mm 1 mps 661 mmHg 15%
    15:00 +11°C° 0 mm 1 mps 660 mmHg 19%
    16:00 +9°C° 0 mm 1 mps 660 mmHg 23%
    17:00 +7°C° 0 mm 1 mps 660 mmHg 27%
    18:00 +7°C° 0 mm 1 mps 660 mmHg 26%
    19:00 +7°C° 0 mm 1 mps 661 mmHg 26%
    20:00 +5°C° 0 mm 2 mps 661 mmHg 25%
    21:00 +5°C° 0 mm 2 mps 661 mmHg 24%
    22:00 +5°C° 0 mm 2 mps 662 mmHg 23%
    23:00 +5°C° 0 mm 2 mps 662 mmHg 22%

    15 December, Saturday

    Time Temperature Precipitation Wind Pressure Humidity
    00:00 +5°C° 0 mm 2 mps 661 mmHg 22%
    01:00 +4°C° 0 mm 2 mps 661 mmHg 21%
    02:00 +4°C° 0 mm 2 mps 661 mmHg 20%
    03:00 +4°C° 0 mm 2 mps 660 mmHg 20%
    04:00 +4°C° 0 mm 2 mps 660 mmHg 19%
    05:00 +4°C° 0 mm 2 mps 660 mmHg 19%
    06:00 +4°C° 0 mm 2 mps 660 mmHg 18%
    07:00 +3°C° 0 mm 3 mps 661 mmHg 18%
    08:00 +4°C° 0 mm 3 mps 661 mmHg 18%
    09:00 +7°C° 0 mm 2 mps 661 mmHg 16%
    10:00 +11°C° 0 mm 1 mps 661 mmHg 14%
    11:00 +14°C° 0 mm 1 mps 662 mmHg 12%
    12:00 +14°C° 0 mm 1 mps 661 mmHg 12%
    13:00 +15°C° 0 mm 1 mps 661 mmHg 13%
    14:00 +15°C° 0 mm 1 mps 661 mmHg 14%
    15:00 +13°C° 0 mm 1 mps 660 mmHg 18%
    16:00 +11°C° 0 mm 1 mps 660 mmHg 22%
    17:00 +7°C° 0 mm 0 mps 659 mmHg 26%
    18:00 +8°C° 0 mm 1 mps 660 mmHg 24%
    19:00 +8°C° 0 mm 1 mps 661 mmHg 23%
    20:00 +6°C° 0 mm 2 mps 662 mmHg 22%
    21:00 +6°C° 0 mm 2 mps 662 mmHg 22%
    22:00 +6°C° 0 mm 2 mps 662 mmHg 21%
    23:00 +6°C° 0 mm 2 mps 662 mmHg 21%

    16 December, Sunday

    Time Temperature Precipitation Wind Pressure Humidity
    00:00 +5°C° 0 mm 3 mps 662 mmHg 20%
    01:00 +4°C° 0 mm 3 mps 662 mmHg 19%
    02:00 +4°C° 0 mm 3 mps 661 mmHg 19%
    03:00 +4°C° 0 mm 3 mps 661 mmHg 18%
    04:00 +4°C° 0 mm 3 mps 661 mmHg 17%
    05:00 +4°C° 0 mm 3 mps 661 mmHg 17%
    06:00 +4°C° 0 mm 3 mps 661 mmHg 16%
    07:00 +4°C° 0 mm 3 mps 662 mmHg 16%
    08:00 +4°C° 0 mm 3 mps 662 mmHg 16%
    09:00 +8°C° 0 mm 2 mps 662 mmHg 14%
    10:00 +12°C° 0 mm 2 mps 663 mmHg 13%
    11:00 +14°C° 0 mm 1 mps 663 mmHg 11%
    12:00 +15°C° 0 mm 1 mps 663 mmHg 11%
    13:00 +15°C° 0 mm 1 mps 662 mmHg 11%
    14:00 +16°C° 0 mm 1 mps 662 mmHg 12%
    15:00 +13°C° 0 mm 1 mps 661 mmHg 15%
    16:00 +11°C° 0 mm 1 mps 661 mmHg 18%
    17:00 +9°C° 0 mm 1 mps 660 mmHg 21%
    18:00 +9°C° 0 mm 1 mps 661 mmHg 20%
    19:00 +7°C° 0 mm 2 mps 661 mmHg 19%
    20:00 +7°C° 0 mm 3 mps 661 mmHg 18%
    21:00 +7°C° 0 mm 3 mps 661 mmHg 19%
    22:00 +5°C° 0 mm 3 mps 661 mmHg 19%
    23:00 +5°C° 0 mm 3 mps 661 mmHg 19%
    Show more